This demonstration page uses our WeatherBlox Daily Observations layout. Learn more.

39.29038, -76.61219

Hourly Observations for April 7, 2016

Temp ( °F °C ) Dew Point ( °F °C ) Humidity (%) Winds ( mph kmh ) Pressure ( in mb ) Visibility ( mi km ) Precip ( " mm )
12:54 am 00:54 undefined 52 11.1 41 5 66 66 undefined N/A 29.88 1012 N/A 0 0
1:54 am 01:54 undefined 52 11.1 43 6.1 72 72 undefined N/A 29.83 1010 N/A 0 0
2:54 am 02:54 undefined 53 11.7 44 6.7 72 72 undefined N/A 29.81 1009 N/A 0 0
3:54 am 03:54 undefined 53 11.7 44 6.7 72 72 undefined N/A 29.77 1008 N/A 0 0
4:54 am 04:54 undefined 55 12.8 45 7.2 69 69 undefined N/A 29.73 1007 N/A 0 0
5:54 am 05:54 undefined 56 13.3 45 7.2 67 67 undefined N/A 29.7 1006 N/A 0 0
6:54 am 06:54 undefined 54 12.2 48 8.9 80 80 undefined N/A 29.67 1005 N/A 0 0
7:54 am 07:54 undefined 54 12.2 50 10 87 87 undefined N/A 29.64 1004 N/A 0 0
8:54 am 08:54 undefined 54 12.2 51 10.6 90 90 undefined N/A 29.59 1002 N/A 0.02 0.508
9:54 am 09:54 undefined 55 12.8 52 11.1 90 90 undefined N/A 29.52 1000 N/A 0.01 0.254
10:54 am 10:54 undefined 55 12.8 52 11.1 90 90 undefined N/A 29.44 997 N/A 0.09 2.286
11:54 am 11:54 undefined 54 12.2 51 10.6 90 90 undefined N/A 29.47 998 N/A 0.26 6.604
12:54 pm 12:54 undefined 56 13.3 46 7.8 70 70 undefined N/A 29.5 999 N/A 0 0
1:54 pm 13:54 undefined 58 14.4 39 3.9 50 50 undefined N/A 29.49 999 N/A 0 0
2:54 pm 14:54 undefined 60 15.6 41 5 50 50 undefined N/A 29.46 998 N/A 0 0
3:54 pm 15:54 undefined 60 15.6 43 6.1 53 53 undefined N/A 29.43 997 N/A 0 0
4:54 pm 16:54 undefined 57 13.9 45 7.2 64 64 undefined N/A 29.41 996 N/A 0 0
5:54 pm 17:54 undefined 53 11.7 44 6.7 72 72 undefined N/A 29.45 997 N/A 0.01 0.254
6:54 pm 18:54 undefined 53 11.7 45 7.2 74 74 undefined N/A 29.45 997 N/A 0 0
7:54 pm 19:54 undefined 52 11.1 46 7.8 80 80 undefined N/A 29.5 999 N/A 0 0
8:54 pm 20:54 undefined 51 10.6 45 7.2 80 80 undefined N/A 29.53 1000 N/A 0 0
9:54 pm 21:54 undefined 51 10.6 39 3.9 64 64 undefined N/A 29.56 1001 N/A 0.01 0.254
10:54 pm 22:54 undefined 50 10 35 1.7 57 57 undefined N/A 29.58 1002 N/A 0 0
11:54 pm 23:54 undefined 49 9.4 33 0.6 55 55 undefined N/A 29.6 1002 N/A 0 0

Powered by AerisWeather